Zhongxing 3B

operational
NORAD ID: 64062 Int'l Des: 2025-106 Owner: ZLZB Country: CN
HEOCIRCULARGSOGEO

About Zhongxing 3B

Description loading...

Live Position

Loading 3D Globe...

Upcoming Passes

Altitude History

Altitude vs Time

uPlot chart will show altitude changes over time

Two-Line Element Set

1 64062U 25106A 26061.85114212 -.00000062 00000-0 00000+0 0 9999
2 64062 0.0204 121.9403 0002056 194.4224 317.9578 1.00270922 2998
Epoch: Mar 2, 2026 • Age: 35 hours

Current Status

Altitude 35794.9 km
Velocity 3.07 km/s
Sub-Earth Point -0.00°S, 167.31°E
Launch Date May 20, 2025
Age 0.7 years
Type other

Technical Details

Classification Payload
Mass 5000.00 kg
Dry Mass 2500.00 kg
Total Mass 5000.00 kg
Length 5.00 m
Diameter 2.50 m
Span 30.00 m
Shape Box + 2 Pan
Manufacturer SISE
Bus Type FY-4
Phase Status In Orbit
Owner/State ZLZB/CN

Large Constellations

Loading constellations...